sat.trackr.live / text

‹ back to catalog

WORLDVIEW-3 (WV-3)

NORAD 40115 · 2014-048A

PAYLOAD ACTIVE UNKNOWN

§ Identity

Operator
Country
US
Launch date
2014-08-13
Launch site
AFWTR
Launch vehicle
Mass (kg)
RCS (m²)
6.22

Purposes: earth_obs

External: N2YO · Heavens-Above · Gunter

§ Orbital elements

Epoch: 2026-05-25T04:34:06.740256Z

Period
96.97 min
Inclination
97.8568°
Eccentricity
0.0002444
Mean motion
14.84976804 rev/d
Perigee alt
611.9 km
Apogee alt
615.4 km
Semi-major
6,991.8 km
B*
9.4982e-5
RAAN
220.3408°
Arg perigee
62.1505°
Mean anomaly
297.9957°
Rev number
63,849

§ Raw data

WORLDVIEW-3 (WV-3)1 40115U 14048A   26145.19035579  .00000756  00000+0  94982-4 0  99982 40115  97.8568 220.3408 0002444  62.1505 297.9957 14.84976804638497

JSON: /api/v1/satellites/40115 · /tle

For live sub-satellite position, see the globe view (requires WebGL).

§ Visibility from observer

Set your observer location to see the next 7 days of passes ≥ 10°. The values pass through the URL so the page stays shareable.

No JS? Fill the form by hand. The geolocation button needs JavaScript.